﻿#,"Date Time, GMT+00:00","Temp, °C (LGR S/N: 2398543, SEN S/N: 2398543)","RH, % (LGR S/N: 2398543, SEN S/N: 2398543)","DewPt, °C (LGR S/N: 2398543, SEN S/N: 2398543)",Coupler Detached (LGR S/N: 2398543),Coupler Attached (LGR S/N: 2398543),Host Connected (LGR S/N: 2398543),End Of File (LGR S/N: 2398543)
1,3/29/2019 12:00,15.724,50.072,5.661,Logged,,,
2,3/29/2019 12:15,15.055,52.691,5.762,,,,
3,3/29/2019 12:30,15.986,49.518,5.746,,,,
4,3/29/2019 12:45,16.106,49.005,5.708,,,,
5,3/29/2019 13:00,16.606,48.822,6.115,,,,
6,3/29/2019 13:15,15.986,50.912,6.14,,,,
7,3/29/2019 13:30,15.652,51.021,5.861,,,,
8,3/29/2019 13:45,15.366,52.213,5.922,,,,
9,3/29/2019 14:00,16.01,51.348,6.283,,,,
10,3/29/2019 14:15,16.01,51.225,6.248,,,,
11,3/29/2019 14:30,16.82,48.818,6.311,,,,
12,3/29/2019 14:45,16.749,42.663,4.326,,,,
13,3/29/2019 15:00,16.701,43.294,4.491,,,,
14,3/29/2019 15:15,16.654,44.935,4.978,,,,
15,3/29/2019 15:30,16.177,49.17,5.821,,,,
16,3/29/2019 15:45,15.772,50.667,5.872,,,,
17,3/29/2019 16:00,15.151,52.858,5.895,,,,
18,3/29/2019 16:15,14.457,54.862,5.771,,,,
19,3/29/2019 16:30,14.409,55.37,5.856,,,,
20,3/29/2019 16:45,13.93,55.662,5.481,,,,
21,3/29/2019 17:00,13.738,56.749,5.57,,,,
22,3/29/2019 17:15,13.425,57.301,5.412,,,,
23,3/29/2019 17:30,13.209,58.047,5.388,,,,
24,3/29/2019 17:45,12.896,56.74,4.778,,,,
25,3/29/2019 18:00,12.485,56.827,4.414,,,,
26,3/29/2019 18:15,12.074,58.762,4.488,,,,
27,3/29/2019 18:30,11.71,60.863,4.626,,,,
28,3/29/2019 18:45,11.297,62.642,4.628,,,,
29,3/29/2019 19:00,10.98,64.827,4.793,,,,
30,3/29/2019 19:15,10.638,66.668,4.846,,,,
31,3/29/2019 19:30,10.369,68.164,4.887,,,,
32,3/29/2019 19:45,9.854,70.957,4.93,,,,
33,3/29/2019 20:00,9.485,72.874,4.929,,,,
34,3/29/2019 20:15,9.064,74.76,4.861,,,,
35,3/29/2019 20:30,8.693,76.225,4.755,,,,
36,3/29/2019 20:45,8.394,77.392,4.664,,,,
37,3/29/2019 21:00,8.195,77.975,4.568,,,,
38,3/29/2019 21:15,7.895,79.102,4.463,,,,
39,3/29/2019 21:30,7.77,79.668,4.433,,,,
40,3/29/2019 21:45,7.444,80.509,4.249,,,,
41,3/29/2019 22:00,7.192,81.361,4.139,,,,
42,3/29/2019 22:15,6.94,82.261,4.032,,,,
43,3/29/2019 22:30,6.864,82.667,4.021,,,,
44,3/29/2019 22:45,6.712,83.267,3.964,,,,
45,3/29/2019 23:00,6.535,83.805,3.872,,,,
46,3/29/2019 23:15,6.408,84.353,3.83,,,,
47,3/29/2019 23:30,6.357,84.603,3.817,,,,
48,3/29/2019 23:45,6.255,85.362,3.83,,,,
49,3/30/2019 0:00,6.179,85.579,3.787,,,,
50,3/30/2019 0:15,6,85.249,3.562,,,,
51,3/30/2019 0:30,6.051,85.574,3.661,,,,
52,3/30/2019 0:45,5.898,86.265,3.611,,,,
53,3/30/2019 1:00,5.796,86.525,3.548,,,,
54,3/30/2019 1:15,5.796,86.68,3.57,,,,
55,3/30/2019 1:30,5.565,86.96,3.383,,,,
56,3/30/2019 1:45,5.693,87.043,3.521,,,,
57,3/30/2019 2:00,5.488,87.482,3.381,,,,
58,3/30/2019 2:15,5.385,87.894,3.338,,,,
59,3/30/2019 2:30,5.231,88.035,3.206,,,,
60,3/30/2019 2:45,4.999,89.28,3.15,,,,
61,3/30/2019 3:00,4.714,90.577,3.046,,,,
62,3/30/2019 3:15,4.506,91.254,2.931,,,,
63,3/30/2019 3:30,4.35,92.691,2.967,,,,
64,3/30/2019 3:45,4.115,93.921,2.893,,,,
65,3/30/2019 4:00,4.194,94.239,3.012,,,,
66,3/30/2019 4:15,4.194,94.709,3.073,,,,
67,3/30/2019 4:30,4.141,94.966,3.053,,,,
68,3/30/2019 4:45,4.298,95.328,3.256,,,,
69,3/30/2019 5:00,4.246,95.388,3.211,,,,
70,3/30/2019 5:15,4.194,95.423,3.163,,,,
71,3/30/2019 5:30,4.115,95.303,3.07,,,,
72,3/30/2019 5:45,4.246,95.289,3.199,,,,
73,3/30/2019 6:00,4.194,94.906,3.098,,,,
74,3/30/2019 6:15,4.063,95.092,2.991,,,,
75,3/30/2019 6:30,4.141,94.916,3.047,,,,
76,3/30/2019 6:45,4.324,94.67,3.198,,,,
77,3/30/2019 7:00,4.506,94.076,3.303,,,,
78,3/30/2019 7:15,4.792,93.531,3.517,,,,
79,3/30/2019 7:30,5.024,92.368,3.596,,,,
80,3/30/2019 7:45,5.282,91.177,3.692,,,,
81,3/30/2019 8:00,6.077,88.835,4.157,,,,
82,3/30/2019 8:15,6.509,87.087,4.335,,,,
83,3/30/2019 8:30,6.56,86.477,4.296,,,,
84,3/30/2019 8:45,6.611,85.447,4.194,,,,
85,3/30/2019 9:00,7.041,84.344,4.452,,,,
86,3/30/2019 9:15,7.695,81.688,4.684,,,,
87,3/30/2019 9:30,8.494,78.583,4.962,,,,
88,3/30/2019 9:45,8.319,77.839,4.667,,,,
89,3/30/2019 10:00,8.742,77.138,4.961,,,,
90,3/30/2019 10:15,9.903,73.71,5.486,,,,
91,3/30/2019 10:30,11.102,68.786,5.713,,,,
92,3/30/2019 10:45,10.761,69.66,5.556,,,,
93,3/30/2019 11:00,10.638,69.325,5.373,,,,
94,3/30/2019 11:15,11.71,65.853,5.703,,,,
95,3/30/2019 11:30,12.05,64.957,5.84,,,,
96,3/30/2019 11:45,12.171,63.638,5.674,,,,
97,3/30/2019 12:00,12.147,65.061,5.955,,,,
98,3/30/2019 12:15,12.606,64.909,6.361,,,,
99,3/30/2019 12:30,12.509,65.59,6.412,,,,
100,3/30/2019 12:45,13.112,63.537,6.548,,,,
101,3/30/2019 13:00,13.473,62.835,6.738,,,,
102,3/30/2019 13:15,13.594,62.149,6.699,,,,
103,3/30/2019 13:30,13.473,62.335,6.627,,,,
104,3/30/2019 13:45,12.823,64.423,6.464,,,,
105,3/30/2019 14:00,12.823,64.248,6.427,,,,
106,3/30/2019 14:15,13.161,63.487,6.583,,,,
107,3/30/2019 14:30,13.353,63.256,6.716,,,,
108,3/30/2019 14:45,13.377,62.79,6.636,,,,
109,3/30/2019 15:00,13.329,62.958,6.627,,,,
110,3/30/2019 15:15,13.353,61.872,6.409,,,,
111,3/30/2019 15:30,13.281,62.597,6.502,,,,
112,3/30/2019 15:45,13.497,61.364,6.432,,,,
113,3/30/2019 16:00,12.968,61.159,5.884,,,,
114,3/30/2019 16:15,12.727,62.503,5.955,,,,
115,3/30/2019 16:30,12.606,62.512,5.843,,,,
116,3/30/2019 16:45,12.485,62.668,5.762,,,,
117,3/30/2019 17:00,12.437,62.63,5.708,,,,
118,3/30/2019 17:15,12.461,63.074,5.828,,,,
119,3/30/2019 17:30,12.34,63.58,5.823,,,,
120,3/30/2019 17:45,11.977,65.553,5.896,,,,
121,3/30/2019 18:00,11.321,68.712,5.909,,,,
122,3/30/2019 18:15,11.078,70.288,5.982,,,,
123,3/30/2019 18:30,10.907,71.104,5.974,,,,
124,3/30/2019 18:45,10.59,72.141,5.862,,,,
125,3/30/2019 19:00,10.296,73.315,5.795,,,,
126,3/30/2019 19:15,10.247,74.086,5.887,,,,
127,3/30/2019 19:30,9.287,80.408,6.038,,,,
128,3/30/2019 19:45,8.941,82.238,5.994,,,,
129,3/30/2019 20:00,8.618,83.231,5.833,,,,
130,3/30/2019 20:15,8.543,83.426,5.79,,,,
131,3/30/2019 20:30,8.593,83.65,5.874,,,,
132,3/30/2019 20:45,8.593,83.756,5.89,,,,
133,3/30/2019 21:00,8.469,84.177,5.833,,,,
134,3/30/2019 21:15,8.419,84.351,5.811,,,,
135,3/30/2019 21:30,8.195,84.932,5.679,,,,
136,3/30/2019 21:45,7.895,86.042,5.55,,,,
137,3/30/2019 22:00,7.82,86.99,5.616,,,,
138,3/30/2019 22:15,7.519,87.955,5.46,,,,
139,3/30/2019 22:30,7.293,89.19,5.413,,,,
140,3/30/2019 22:45,7.142,89.717,5.337,,,,
141,3/30/2019 23:00,6.99,90.139,5.246,,,,
142,3/30/2019 23:15,6.788,90.497,5.095,,,,
143,3/30/2019 23:30,6.839,89.487,5.004,,,,
144,3/30/2019 23:45,6.788,86.843,4.575,,,,
145,3/31/2019 0:00,6.864,82.296,3.964,,,,
146,3/31/2019 0:15,6.99,78.149,3.422,,,,
147,3/31/2019 0:30,6.813,82.682,3.974,,,,
148,3/31/2019 0:45,6.737,82.612,3.888,,,,
149,3/31/2019 1:00,6.763,79.553,3.429,,,,
150,3/31/2019 1:15,6.661,75.143,2.594,,,,
151,3/31/2019 1:30,6.611,72.604,2.099,,,,
152,3/31/2019 1:45,6.585,73.454,2.226,,,,
153,3/31/2019 2:00,6.56,73.834,2.268,,,,
154,3/31/2019 2:15,6.535,73.581,2.199,,,,
155,3/31/2019 2:30,6.509,74.126,2.27,,,,
156,3/31/2019 2:45,6.535,75.39,2.513,,,,
157,3/31/2019 3:00,6.408,78.427,2.899,,,,
158,3/31/2019 3:15,6.382,78.502,2.886,,,,
159,3/31/2019 3:30,6.382,78.879,2.948,,,,
160,3/31/2019 3:45,6.382,79.067,2.978,,,,
161,3/31/2019 4:00,6.357,79.329,2.996,,,,
162,3/31/2019 4:15,6.331,80.314,3.129,,,,
163,3/31/2019 4:30,6.255,81.255,3.203,,,,
164,3/31/2019 4:45,6.102,82.598,3.262,,,,
165,3/31/2019 5:00,5.949,83.878,3.307,,,,
166,3/31/2019 5:15,5.872,85.01,3.401,,,,
167,3/31/2019 5:30,5.796,85.357,3.376,,,,
168,3/31/2019 5:45,5.693,85.774,3.337,,,,
169,3/31/2019 6:00,5.616,86.197,3.323,,,,
170,3/31/2019 6:15,5.616,86.636,3.387,,,,
171,3/31/2019 6:30,5.719,86.118,3.412,,,,
172,3/31/2019 6:45,5.77,86.208,3.476,,,,
173,3/31/2019 7:00,5.821,85.909,3.483,,,,
174,3/31/2019 7:15,6.408,83.749,3.738,,,,
175,3/31/2019 7:30,6.839,79.677,3.523,,,,
176,3/31/2019 7:45,7.469,75.612,3.46,,,,
177,3/31/2019 8:00,7.695,71.264,2.904,,,,
178,3/31/2019 8:15,7.92,70.693,3.016,,,,
179,3/31/2019 8:30,7.645,69.266,2.482,,,,
180,3/31/2019 8:45,7.895,66.995,2.284,,,,
181,3/31/2019 9:00,8.767,65.098,2.737,,,,
182,3/31/2019 9:15,8.792,63.605,2.451,,,,
183,3/31/2019 9:30,9.089,63.049,2.617,,,,
184,3/31/2019 9:45,9.114,61.864,2.386,,,,
185,3/31/2019 10:00,10.345,56.944,2.433,,,,
186,3/31/2019 10:15,10.687,52.223,1.578,,,,
187,3/31/2019 10:30,10.198,54.652,1.738,,,,
188,3/31/2019 10:45,9.731,51.875,0.599,,,,
189,3/31/2019 11:00,10.492,49.244,0.599,,,,
190,3/31/2019 11:15,10.516,50.103,0.856,,,,
191,3/31/2019 11:30,9.608,52.22,0.574,,,,
192,3/31/2019 11:45,9.756,53.206,0.963,,,,
193,3/31/2019 12:00,9.41,54.116,0.87,,,,
194,3/31/2019 12:15,9.657,53.071,0.837,,,,
195,3/31/2019 12:30,9.879,51.473,0.631,,,,
196,3/31/2019 12:45,9.682,50.627,0.225,,,,
197,3/31/2019 13:00,9.46,51.202,0.171,,,,
198,3/31/2019 13:15,9.756,50.94,0.376,,,,
199,3/31/2019 13:30,10.051,50.647,0.572,,,,
200,3/31/2019 13:45,9.78,51.277,0.488,,,,
201,3/31/2019 14:00,9.756,51.818,0.607,,,,
202,3/31/2019 14:15,9.78,51.338,0.504,,,,
203,3/31/2019 14:30,9.583,50.34,0.057,,,,
204,3/31/2019 14:45,9.336,50.124,-0.23,,,,
205,3/31/2019 15:00,9.657,48.919,-0.261,,,,
206,3/31/2019 15:15,9.731,50.147,0.142,,,,
207,3/31/2019 15:30,9.879,49.772,0.177,,,,
208,3/31/2019 15:45,9.558,48.722,-0.406,,,,
209,3/31/2019 16:00,9.805,50.309,0.254,,,,
210,3/31/2019 16:15,9.064,53.705,0.445,,,,
211,3/31/2019 16:30,9.213,54.207,0.708,,,,
212,3/31/2019 16:45,8.742,54.853,0.427,,,,
213,3/31/2019 17:00,8.792,54.054,0.277,,,,
214,3/31/2019 17:15,8.643,53.943,0.11,,,,
215,3/31/2019 17:30,8.444,54.063,-0.046,,,,
216,3/31/2019 17:45,8.22,55.518,0.098,,,,
217,3/31/2019 18:00,7.97,56.192,0.024,,,,
218,3/31/2019 18:15,7.82,56.789,0.024,,,,
219,3/31/2019 18:30,7.67,58.472,0.269,,,,
220,3/31/2019 18:45,7.192,61.423,0.468,,,,
221,3/31/2019 19:00,6.864,63.155,0.522,,,,
222,3/31/2019 19:15,6.636,64.376,0.556,,,,
223,3/31/2019 19:30,6.433,66.302,0.747,,,,
224,3/31/2019 19:45,6.23,68.183,0.916,,,,
225,3/31/2019 20:00,6.128,68.304,0.841,,,,
226,3/31/2019 20:15,5.898,69.297,0.807,,,,
227,3/31/2019 20:30,5.719,70.21,0.804,,,,
228,3/31/2019 20:45,5.565,71.096,0.817,,,,
229,3/31/2019 21:00,5.437,71.099,0.694,,,,
230,3/31/2019 21:15,5.437,71.099,0.694,,,,
231,3/31/2019 21:30,5.179,72.977,0.78,,,,
232,3/31/2019 21:45,4.921,74.428,0.781,,,,
233,3/31/2019 22:00,4.792,75.244,0.794,,,,
234,3/31/2019 22:15,4.714,75.742,0.803,,,,
235,3/31/2019 22:30,4.766,75.157,0.754,,,,
236,3/31/2019 22:45,4.973,74.302,0.81,,,,
237,3/31/2019 23:00,4.947,74.624,0.84,,,,
238,3/31/2019 23:15,4.921,74.673,0.823,,,,
239,3/31/2019 23:30,4.921,75.162,0.906,,,,
240,3/31/2019 23:45,4.636,76.806,0.904,,,,
241,4/1/2019 0:00,4.376,77.851,0.821,,,,
242,4/1/2019 0:15,4.246,78.304,0.767,,,,
243,4/1/2019 0:30,4.168,78.313,0.693,,,,
244,4/1/2019 0:45,4.194,78.372,0.728,,,,
245,4/1/2019 1:00,4.246,77.849,0.694,,,,
246,4/1/2019 1:15,4.063,78.077,0.552,,,,
247,4/1/2019 1:30,4.063,78.691,0.651,,,,
248,4/1/2019 1:45,4.037,78.818,0.646,,,,
249,4/1/2019 2:00,4.089,78.936,0.716,,,,
250,4/1/2019 2:15,4.141,78.894,0.76,,,,
251,4/1/2019 2:30,4.141,79.027,0.781,,,,
252,4/1/2019 2:45,4.194,78.639,0.77,,,,
253,4/1/2019 3:00,4.35,77.684,0.769,,,,
254,4/1/2019 3:15,4.324,77.035,0.638,,,,
255,4/1/2019 3:30,4.402,76.405,0.61,,,,
256,4/1/2019 3:45,4.35,75.665,0.436,,,,
257,4/1/2019 4:00,4.506,74.396,0.373,,,,
258,4/1/2019 4:15,4.532,73.502,0.245,,,,
259,4/1/2019 4:30,4.532,72.572,0.082,,,,
260,4/1/2019 4:45,4.584,71.923,0.018,,,,
261,4/1/2019 5:00,4.324,72.118,-0.199,,,,
262,4/1/2019 5:15,4.35,71.629,-0.26,,,,
263,4/1/2019 5:30,4.194,71.845,-0.373,,,,
264,4/1/2019 5:45,4.141,71.972,-0.401,,,,
265,4/1/2019 6:00,4.376,70.807,-0.382,,,,
266,4/1/2019 6:15,4.402,70.398,-0.431,,,,
267,4/1/2019 6:30,4.454,70.076,-0.44,,,,
268,4/1/2019 6:45,4.506,70.086,-0.388,,,,
269,4/1/2019 7:00,4.766,69.47,-0.25,,,,
270,4/1/2019 7:15,4.74,69.771,-0.22,,,,
271,4/1/2019 7:30,5.128,68.508,-0.081,,,,
272,4/1/2019 7:45,5.539,68.334,0.282,,,,
273,4/1/2019 8:00,5.77,67.816,0.405,,,,
274,4/1/2019 8:15,6.153,67.043,0.623,,,,
275,4/1/2019 8:30,6.535,65.498,0.685,,,,
276,4/1/2019 8:45,6.331,65.887,0.568,,,,
277,4/1/2019 9:00,6.788,65.202,0.868,,,,
278,4/1/2019 9:15,7.469,65.637,1.606,,,,
279,4/1/2019 9:30,7.167,66.663,1.52,,,,
280,4/1/2019 9:45,7.569,65.998,1.774,,,,
281,4/1/2019 10:00,8.22,65.43,2.281,,,,
282,4/1/2019 10:15,7.544,65.023,1.554,,,,
283,4/1/2019 10:30,7.645,64.955,1.636,,,,
284,4/1/2019 10:45,8.095,63.887,1.846,,,,
285,4/1/2019 11:00,8.17,63.151,1.764,,,,
286,4/1/2019 11:15,8.767,62.299,2.151,,,,
287,4/1/2019 11:30,8.817,61.493,2.024,,,,
288,4/1/2019 11:45,9.015,62.544,2.439,,,,
289,4/1/2019 12:00,9.386,60.421,2.328,,,,
290,4/1/2019 12:15,9.41,59.78,2.208,,,,
291,4/1/2019 12:30,9.41,61.535,2.596,,,,
292,4/1/2019 12:45,10.001,58.816,2.547,,,,
293,4/1/2019 13:00,10.198,59.113,2.8,,,,
294,4/1/2019 13:15,10.614,58.855,3.133,,,,
295,4/1/2019 13:30,10.369,58.372,2.791,,,,
296,4/1/2019 13:45,10.443,57.969,2.766,,,,
297,4/1/2019 14:00,10.81,58.027,3.125,,,,
298,4/1/2019 14:15,10.736,58.015,3.054,,,,
299,4/1/2019 14:30,11.662,56.251,3.502,,,,
300,4/1/2019 14:45,11.904,54.997,3.42,,,,
301,4/1/2019 15:00,11.807,54.38,3.174,,,,
302,4/1/2019 15:15,11.637,55.768,3.361,,,,
303,4/1/2019 15:30,11.759,53.739,2.966,,,,
304,4/1/2019 15:45,11.71,54.396,3.088,,,,
305,4/1/2019 16:00,12.05,53.872,3.272,,,,
306,4/1/2019 16:15,11.953,54.22,3.27,,,,
307,4/1/2019 16:30,11.977,54.012,3.24,,,,
308,4/1/2019 16:45,11.807,54.53,3.212,,,,
309,4/1/2019 17:00,11.856,54.538,3.259,,,,
310,4/1/2019 17:15,11.759,55.606,3.435,,,,
311,4/1/2019 17:30,11.613,56.274,3.462,,,,
312,4/1/2019 17:45,11.565,56.775,3.537,,,,
313,4/1/2019 18:00,11.37,57.877,3.618,,,,
314,4/1/2019 18:15,11.102,59.051,3.639,,,,
315,4/1/2019 18:30,11.029,59.631,3.703,,,,
316,4/1/2019 18:45,10.663,61.042,3.675,,,,
317,4/1/2019 19:00,10.492,62.417,3.814,,,,
318,4/1/2019 19:15,9.952,64.067,3.653,,,,
319,4/1/2019 19:30,9.608,65.563,3.635,,,,
320,4/1/2019 19:45,9.657,66.118,3.795,,,,
321,4/1/2019 20:00,9.287,67.479,3.713,,,,
322,4/1/2019 20:15,9.015,68.65,3.682,,,,
323,4/1/2019 20:30,8.742,70.937,3.854,,,,
324,4/1/2019 20:45,8.618,72.283,3.983,,,,
325,4/1/2019 21:00,8.469,73.31,4.025,,,,
326,4/1/2019 21:15,8.095,74.644,3.899,,,,
327,4/1/2019 21:30,7.87,75.833,3.888,,,,
328,4/1/2019 21:45,7.895,75.592,3.87,,,,
329,4/1/2019 22:00,7.695,76.616,3.851,,,,
330,4/1/2019 22:15,7.695,76.97,3.911,,,,
331,4/1/2019 22:30,7.393,77.233,3.662,,,,
332,4/1/2019 22:45,7.066,78.543,3.561,,,,
333,4/1/2019 23:00,6.965,78.791,3.503,,,,
334,4/1/2019 23:15,7.167,77.97,3.564,,,,
335,4/1/2019 23:30,7.116,77.987,3.518,,,,
336,4/1/2019 23:45,6.864,78.499,3.356,,,,
337,4/2/2019 0:00,6.737,78.983,3.312,,,,
338,4/2/2019 0:15,6.813,78.946,3.38,,,,
339,4/2/2019 0:30,7.015,78.046,3.429,,,,
340,4/2/2019 0:45,6.99,78.041,3.404,,,,
341,4/2/2019 1:00,6.94,77.84,3.321,,,,
342,4/2/2019 1:15,7.066,77.38,3.368,,,,
343,4/2/2019 1:30,6.965,77.494,3.288,,,,
344,4/2/2019 1:45,6.94,77.786,3.312,,,,
345,4/2/2019 2:00,7.066,77.19,3.336,,,,
346,4/2/2019 2:15,7.242,76.084,3.32,,,,
347,4/2/2019 2:30,7.066,76.864,3.281,,,,
348,4/2/2019 2:45,7.142,76.88,3.357,,,,
349,4/2/2019 3:00,7.268,76.689,3.448,,,,
350,4/2/2019 3:15,7.116,77.905,3.504,,,,
351,4/2/2019 3:30,6.914,77.7,3.273,,,,
352,4/2/2019 3:45,6.611,79.063,3.201,,,,
353,4/2/2019 4:00,5.949,83.983,3.322,,,,
354,4/2/2019 4:15,5.796,85.981,3.468,,,,
355,4/2/2019 4:30,5.539,87.263,3.401,,,,
356,4/2/2019 4:45,5.411,88.31,3.423,,,,
357,4/2/2019 5:00,5.257,89.243,3.401,,,,
358,4/2/2019 5:15,5.102,89.865,3.334,,,,
359,4/2/2019 5:30,4.973,89.069,3.095,,,,
360,4/2/2019 5:45,4.999,89.254,3.147,,,,
361,4/2/2019 6:00,4.921,89.667,3.127,,,,
362,4/2/2019 6:15,4.921,89.565,3.113,,,,
363,4/2/2019 6:30,4.999,88.719,3.072,,,,
364,4/2/2019 6:45,5.308,88.336,3.325,,,,
365,4/2/2019 7:00,5.488,86.347,3.218,,,,
366,4/2/2019 7:15,5.591,85.931,3.259,,,,
367,4/2/2019 7:30,5.898,85.355,3.477,,,,
368,4/2/2019 7:45,6.153,83.347,3.427,,,,
369,4/2/2019 8:00,6.179,83.695,3.505,,,,
370,4/2/2019 8:15,6.458,83.366,3.73,,,,
371,4/2/2019 8:30,6.56,82.862,3.753,,,,
372,4/2/2019 8:45,6.611,82.873,3.804,,,,
373,4/2/2019 9:00,6.458,81.461,3.435,,,,
374,4/2/2019 9:15,6.281,82.216,3.378,,,,
375,4/2/2019 9:30,6.128,83.972,3.497,,,,
376,4/2/2019 9:45,6.077,84.275,3.492,,,,
377,4/2/2019 10:00,6.433,82.621,3.591,,,,
378,4/2/2019 10:15,6.636,77.558,2.978,,,,
379,4/2/2019 10:30,6.813,75.748,2.846,,,,
380,4/2/2019 10:45,7.066,74.02,2.791,,,,
381,4/2/2019 11:00,7.318,69.148,2.145,,,,
382,4/2/2019 11:15,7.419,67.418,1.91,,,,
383,4/2/2019 11:30,7.318,67.314,1.793,,,,
384,4/2/2019 11:45,8.02,64.104,1.82,,,,
385,4/2/2019 12:00,8.12,62.854,1.654,,,,
386,4/2/2019 12:15,8.792,59.855,1.64,,,,
387,4/2/2019 12:30,8.841,59.628,1.636,,,,
388,4/2/2019 12:45,8.618,61.751,1.892,,,,
389,4/2/2019 13:00,7.695,68.853,2.452,,,,
390,4/2/2019 13:15,9.386,60.128,2.262,,,,
391,4/2/2019 13:30,9.312,56.041,1.247,,,,
392,4/2/2019 13:45,9.903,55.147,1.585,,,,
393,4/2/2019 14:00,8.99,58.183,1.448,,,,
394,4/2/2019 14:15,8.841,58.483,1.377,,,,
395,4/2/2019 14:30,8.693,55.144,0.451,,,,
396,4/2/2019 14:45,9.46,54.901,1.11,,,,
397,4/2/2019 15:00,9.952,52.481,0.961,,,,
398,4/2/2019 15:15,10.565,51.053,1.157,,,,
399,4/2/2019 15:30,10.247,51.888,1.081,,,,
400,4/2/2019 15:45,10.001,50.276,0.427,,,,
401,4/2/2019 16:00,8.891,53.44,0.216,,,,
402,4/2/2019 16:15,8.145,58.841,0.801,,,,
403,4/2/2019 16:30,7.745,60.325,0.754,,,,
404,4/2/2019 16:45,8.12,58.925,0.797,,,,
405,4/2/2019 17:00,8.095,55.024,-0.138,,,,
406,4/2/2019 17:15,7.995,54.295,-0.409,,,,
407,4/2/2019 17:30,7.594,58.46,0.196,,,,
408,4/2/2019 17:45,7.116,62.71,0.669,,,,
409,4/2/2019 18:00,6.636,65.317,0.745,,,,
410,4/2/2019 18:15,6.408,66.128,0.688,,,,
411,4/2/2019 18:30,6.23,66.548,0.6,,,,
412,4/2/2019 18:45,6.153,66.647,0.546,,,,
413,4/2/2019 19:00,6.102,66.61,0.49,,,,
414,4/2/2019 19:15,6.128,65.822,0.36,,,,
415,4/2/2019 19:30,6.102,66.638,0.496,,,,
416,4/2/2019 19:45,5.719,68.564,0.497,,,,
417,4/2/2019 20:00,5.385,70.59,0.552,,,,
418,4/2/2019 20:15,5.334,70.302,0.45,,,,
419,4/2/2019 20:30,5.385,69.84,0.414,,,,
420,4/2/2019 20:45,5.257,70.592,0.428,,,,
421,4/2/2019 21:00,5.076,71.47,0.413,,,,
422,4/2/2019 21:15,4.947,71.775,0.342,,,,
423,4/2/2019 21:30,4.766,72.619,0.317,,,,
424,4/2/2019 21:45,4.662,73.31,0.337,,,,
425,4/2/2019 22:00,4.74,73.845,0.505,,,,
426,4/2/2019 22:15,4.506,74.994,0.475,,,,
427,4/2/2019 22:30,4.272,76.054,0.425,,,,
428,4/2/2019 22:45,4.089,77.36,0.462,,,,
429,4/2/2019 23:00,4.089,77.655,0.51,,,,
430,4/2/2019 23:15,3.88,78.49,0.44,,,,
431,4/2/2019 23:30,3.775,79.769,0.54,,,,
432,4/2/2019 23:45,3.67,80.354,0.528,,,,
433,4/3/2019 0:00,3.459,81.307,0.469,,,,
434,4/3/2019 0:15,3.301,81.926,0.408,,,,
435,4/3/2019 0:30,3.248,82.411,0.429,,,,
436,4/3/2019 0:45,3.116,82.693,0.341,,,,
437,4/3/2019 1:00,3.063,82.263,0.224,,,,
438,4/3/2019 1:15,2.85,82.995,0.125,,,,
439,4/3/2019 1:30,2.69,83.373,0.024,,,,
440,4/3/2019 1:45,2.61,83.614,-0.019,,,,
441,4/3/2019 2:00,2.316,83.88,-0.27,,,,
442,4/3/2019 2:15,2.503,83.2,-0.186,,,,
443,4/3/2019 2:30,2.423,83.362,-0.241,,,,
444,4/3/2019 2:45,2.209,84.19,-0.331,,,,
445,4/3/2019 3:00,1.967,84.801,-0.481,,,,
446,4/3/2019 3:15,2.047,84.255,-0.48,,,,
447,4/3/2019 3:30,1.724,84.435,-0.773,,,,
448,4/3/2019 3:45,1.697,85.249,-0.683,,,,
449,4/3/2019 4:00,1.832,85.691,-0.487,,,,
450,4/3/2019 4:15,1.643,85.976,-0.634,,,,
451,4/3/2019 4:30,1.805,86.296,-0.429,,,,
452,4/3/2019 4:45,1.724,86.098,-0.536,,,,
453,4/3/2019 5:00,1.67,86.365,-0.552,,,,
454,4/3/2019 5:15,1.697,86.372,-0.525,,,,
455,4/3/2019 5:30,1.697,86.448,-0.514,,,,
456,4/3/2019 5:45,1.67,86.518,-0.531,,,,
457,4/3/2019 6:00,1.697,86.295,-0.536,,,,
458,4/3/2019 6:15,2.155,84.872,-0.285,,,,
459,4/3/2019 6:30,2.155,84.203,-0.382,,,,
460,4/3/2019 6:45,2.37,83.712,-0.242,,,,
461,4/3/2019 7:00,2.77,82.925,0.036,,,,
462,4/3/2019 7:15,3.591,81.179,0.578,,,,
463,4/3/2019 7:30,4.48,78.542,1.035,,,,
464,4/3/2019 7:45,5.102,76.122,1.244,,,,
465,4/3/2019 8:00,5.745,73.53,1.424,,,,
466,4/3/2019 8:15,5.77,72.766,1.315,,,,
467,4/3/2019 8:30,6.458,72.104,1.862,,,,
468,4/3/2019 8:45,6.788,70.334,1.858,,,,
469,4/3/2019 9:00,6,69.624,0.967,,,,
470,4/3/2019 9:15,6,71.431,1.298,,,,
471,4/3/2019 9:30,5.693,71.979,1.1,,,,
472,4/3/2019 9:45,6.306,70.603,1.442,,,,
473,4/3/2019 10:00,6.509,68.826,1.307,,,,
474,4/3/2019 10:15,5.949,68.411,0.69,,,,
475,4/3/2019 10:30,6.153,67.268,0.667,,,,
476,4/3/2019 10:45,6.433,66.642,0.814,,,,
477,4/3/2019 11:00,6.408,66.92,0.843,,,,
478,4/3/2019 11:15,6.484,69.129,1.34,,,,
479,4/3/2019 11:30,6.864,67.654,1.423,,,,
480,4/3/2019 11:45,7.619,65.151,1.651,,,,
481,4/3/2019 12:00,7.015,66.579,1.359,,,,
482,4/3/2019 12:15,7.318,66.066,1.547,,,,
483,4/3/2019 12:30,7.192,65.815,1.377,,,,
484,4/3/2019 12:45,7.494,63.61,1.216,,,,
485,4/3/2019 13:00,7.268,64.545,1.193,,,,
486,4/3/2019 13:15,7.519,62.086,0.92,,,,
487,4/3/2019 13:30,7.318,62.514,0.82,,,,
488,4/3/2019 13:45,7.116,66.767,1.493,,,,
489,4/3/2019 14:00,7.293,65.121,1.333,,,,
490,4/3/2019 14:15,8.319,60.945,1.433,,,,
491,4/3/2019 14:30,9.015,58.775,1.607,,,,
492,4/3/2019 14:45,8.12,58.015,0.59,,,,
493,4/3/2019 15:00,7.945,59.102,0.671,,,,
494,4/3/2019 15:15,8.145,59.193,0.881,,,,
495,4/3/2019 15:30,8.469,56.357,0.532,,,,
496,4/3/2019 15:45,8.17,58.14,0.666,,,,
497,4/3/2019 16:00,8.717,58.316,1.222,,,,
498,4/3/2019 16:15,8.419,58.21,0.916,,,,
499,4/3/2019 16:30,8.742,60.694,1.779,,,,
500,4/3/2019 16:45,8.519,57.607,0.871,,,,
501,4/3/2019 17:00,6.051,74.333,1.862,,,,
502,4/3/2019 17:15,5.949,74.421,1.778,,,,
503,4/3/2019 17:30,6.94,71.867,2.285,,,,
504,4/3/2019 17:45,6.458,71.771,1.803,,,,
505,4/3/2019 18:00,6.687,71.372,1.951,,,,
506,4/3/2019 18:15,6.535,69.81,1.516,,,,
507,4/3/2019 18:30,6.026,75.72,2.075,,,,
508,4/3/2019 18:45,5.616,78.872,2.198,,,,
509,4/3/2019 19:00,5.282,80.982,2.207,,,,
510,4/3/2019 19:15,5.257,82.64,2.437,,,,
511,4/3/2019 19:30,5.282,84.192,2.697,,,,
512,4/3/2019 19:45,5.282,84.375,2.725,,,,
513,4/3/2019 20:00,5.334,79.825,2.074,,,,
514,4/3/2019 20:15,5.411,78.559,1.947,,,,
515,4/3/2019 20:30,5.334,81.841,2.391,,,,
516,4/3/2019 20:45,5.179,82.227,2.298,,,,
517,4/3/2019 21:00,5.024,83.006,2.265,,,,
518,4/3/2019 21:15,4.869,83.938,2.253,,,,
519,4/3/2019 21:30,4.869,84.512,2.338,,,,
520,4/3/2019 21:45,4.766,84.747,2.271,,,,
521,4/3/2019 22:00,4.506,83.383,1.812,,,,
522,4/3/2019 22:15,4.298,84.454,1.766,,,,
523,4/3/2019 22:30,4.063,84.684,1.569,,,,
524,4/3/2019 22:45,4.089,84.638,1.588,,,,
525,4/3/2019 23:00,3.88,85.364,1.487,,,,
526,4/3/2019 23:15,3.906,85.577,1.544,,,,
527,4/3/2019 23:30,3.801,86.555,1.581,,,,
528,4/3/2019 23:45,3.722,87.534,1.641,,,,
529,4/4/2019 0:00,3.643,87.871,1.611,,,,
530,4/4/2019 0:15,3.749,88.025,1.736,,,,
531,4/4/2019 0:30,3.67,88.412,1.712,,,,
532,4/4/2019 0:45,3.617,88.678,1.697,,,,
533,4/4/2019 1:00,3.67,89.097,1.807,,,,
534,4/4/2019 1:15,3.564,89.475,1.754,,,,
535,4/4/2019 1:30,3.485,90.01,1.749,,,,
536,4/4/2019 1:45,3.591,90.314,1.894,,,,
537,4/4/2019 2:00,3.591,89.987,1.85,,,,
538,4/4/2019 2:15,3.433,90.65,1.782,,,,
539,4/4/2019 2:30,3.168,90.983,1.564,,,,
540,4/4/2019 2:45,3.089,91.313,1.529,,,,
541,4/4/2019 3:00,3.195,91.19,1.618,,,,
542,4/4/2019 3:15,3.142,91.277,1.577,,,,
543,4/4/2019 3:30,3.142,91.102,1.554,,,,
544,4/4/2019 3:45,3.036,90.924,1.425,,,,
545,4/4/2019 4:00,3.009,91.142,1.427,,,,
546,4/4/2019 4:15,2.93,91.097,1.342,,,,
547,4/4/2019 4:30,2.956,91.228,1.386,,,,
548,4/4/2019 4:45,2.877,91.258,1.311,,,,
549,4/4/2019 5:00,2.903,91.464,1.364,,,,
550,4/4/2019 5:15,3.036,91.124,1.451,,,,
551,4/4/2019 5:30,3.142,91.077,1.55,,,,
552,4/4/2019 5:45,3.142,90.826,1.517,,,,
553,4/4/2019 6:00,3.248,90.452,1.572,,,,
554,4/4/2019 6:15,3.221,89.993,1.484,,,,